Regional Weather Roundup
Issued by NWS

Home | Current Version | Previous Version | Graphics & Text | Print | Product List | Glossary On
Versions: 1 2 3 4 5 6 7 8 9 10 11 12 13 14 15 16 17 18 19 20 21 22 23 24 25 26 27 28 29 30 31 32 33 34 35 36 37 38 39 40 41 42 43 44 45 46 47 48 49 50
000
ASUS43 KMPX 111501
RWRMN
WEATHER ROUNDUP FOR MINNESOTA
NATIONAL WEATHER SERVICE TWIN CITIES/CHANHASSEN MN
1000 AM CDT FRI JUL 11 2014


NOTE: "FAIR" INDICATES FEW OR NO CLOUDS BELOW 12,000 FEET WITH NO
SIGNIFICANT WEATHER AND/OR OBSTRUCTIONS TO VISIBILITY. N/A MEANS
CURRENT SKY AND/OR WEATHER CONDITIONS ARE NOT AVAILABLE.

MNZ060>063-068>070-111600-
   Twin Cities Metro

CITY           SKY/WX    TMP DP  RH WIND       PRES   REMARKS
TWIN CITIES    HVY RAIN  65  64  97 SE14      30.01F FOG
ST PAUL        LGT RAIN  65  63  93 S13       30.02R FOG
CRYSTAL        RAIN      67  64  90 SE15      29.97F FOG
BLAINE         PTSUNNY   68  66  94 S15       29.99S
LAKEVILLE      RAIN      63  63 100 S13       30.03R
EDEN PRAIRIE   RAIN      66  65  96 S13       29.99F FOG
SOUTH ST PAUL  LGT RAIN  65  63  94 S9        30.03F
LAKE ELMO      RAIN      64  63  94 S16G23    30.03R
$$
MNZ001>005-007-008-013>017-022>024-027-028-111600-
   Northwest Minnesota

CITY           SKY/WX    TMP DP  RH WIND       PRES   REMARKS
BEMIDJI        CLOUDY    72  67  83 SW6       29.87S
HALLOCK        MOSUNNY   75  66  73 NW12      29.85R
ROSEAU         SUNNY     75  70  83 W12       29.83S
WARROAD        PTSUNNY   73  70  88 W10       29.83R
THIEF RVR FALL   N/A     75  70  83 W8        29.86
CROOKSTON      MOSUNNY   75  70  83 NW7       29.86R
FOSSTON        CLOUDY    75  68  78 SW8       29.87S
DETROIT LAKES  PTSUNNY   73  70  88 S6        29.89R
MOORHEAD       SUNNY     77  73  88 NW3       29.86R
PARK RAPIDS    CLOUDY    70  67  90 S7        29.89S
$$
MNZ006-009>011-018-025>026-111600-
   North Central Minnesota

CITY           SKY/WX    TMP DP  RH WIND       PRES   REMARKS
BAUDETTE       CLOUDY    73  68  84 SW10      29.84R
FLAG ISLAND    CLOUDY    72  66  83 SW12      29.80R HAZE
INTL FALLS     CLOUDY    70  65  84 VRB7      29.85S
WASKISH        CLOUDY    72  68  88 S1        29.85S
BIG FORK       PTSUNNY   70  64  83 S8        29.88F
LONGVILLE      CLOUDY    70  66  88 S10       29.88F
GRAND RAPIDS   CLOUDY    70  64  83 S13       29.90S
CRANE LAKE     CLOUDY    66  63  88 S5        29.89S
ORR            CLOUDY    66  63  88 S5        29.86S
COOK           CLOUDY    66  64  94 S6        29.90S
$$
MNZ012-019>021-037-111600-
   Northeast Minnesota

CITY           SKY/WX    TMP DP  RH WIND       PRES   REMARKS
DULUTH         CLOUDY    66  62  87 S12       29.93F
ELY            CLOUDY    64  63  94 S9        29.91S
HIBBING        CLOUDY    68  63  84 VRB6      29.91S
EVELETH        CLOUDY    64  63  94 S7        29.92F
DULUTH HARBOR  CLOUDY    54  52  94 NE8       29.94S
TWO HARBORS    CLOUDY    61  55  82 CALM      29.93S
SILVER BAY     PTSUNNY   59  59 100 CALM      29.93S
GRAND MARAIS     N/A     49  47  93 NE3       29.96F
G MARAIS ARPRT DRZL/FOG  61  57  88 S8        29.98F VSB 1/4
$$
MNZ029>031-032-039>041-046>048-054>057-064-111600-
   West Central Minnesota

CITY           SKY/WX    TMP DP  RH WIND       PRES   REMARKS
FERGUS FALLS   CLOUDY    75  66  73 W6        29.87S
WHEATON        MOSUNNY   75  68  78 S3        29.88S
MORRIS         SUNNY     79  70  73 S8        29.87F
ALEXANDRIA     CLOUDY    72  68  87 SW10      29.91S
WADENA         PTSUNNY   72  66  83 S8        29.89R
GLENWOOD       MOSUNNY   72  68  88 S10       29.91S
APPLETON       SUNNY     81  66  61 SW8       29.86F
BENSON         MOSUNNY   77  70  78 SW8       29.88F
ORTONVILLE     SUNNY     79  68  69 W5        29.86F
MADISON        MOSUNNY   81  70  69 W8        29.87F
WILLMAR        FAIR      73  66  78 S8        29.92F
$$
MNZ033>034-036-042>043-049>051-058-059-111600-
   Central Minnesota

CITY           SKY/WX    TMP DP  RH WIND       PRES   REMARKS
ST CLOUD       CLOUDY    68  66  93 S10       29.93F
SAUK CENTRE    CLOUDY    71  68  90 S9        29.91S
PAYNESVILLE    HVY RAIN  67  65  96 SE9       29.93F
AITKIN         CLOUDY    70  64  83 S10       29.90R
PINE RIVER     CLOUDY    68  66  94 S8        29.92F
BRAINERD       CLOUDY    73  65  75 S15       29.90F
STAPLES        CLOUDY    68  66  94 S9        29.90S
LONG PRAIRIE   CLOUDY    68  66  94 SE7       29.91S
LITTLE FALLS   CLOUDY    66  64  94 SE7       29.92S
LITCHFIELD     CLOUDY    70  70 100 SE7       29.95S
BUFFALO        DRIZZLE   67  64  90 SE7       29.97F
MAPLE LAKE     LGT RAIN  68  67  97 S3        29.97S
$$
MNZ037-044-045-052-053-111600-
   East Central Minnesota

CITY           SKY/WX    TMP DP  RH WIND       PRES   REMARKS
PRINCETON      CLOUDY    68  66  94 S13       29.95F
MORA           CLOUDY    68  63  83 S13G23    29.96R
CAMBRIDGE      RAIN      70  61  73 S16G22    29.93F
RUSH CITY      CLOUDY    68  64  86 S15G21    29.96R
MOOSE LAKE     CLOUDY    66  63  88 S10       29.92S
HINCKLEY       CLOUDY    68  64  88 S9        29.96R
CLOQUET        CLOUDY    66  63  88 S9        29.94S
MCGREGOR       CLOUDY    68  64  88 S9        29.92S
$$
MNZ071>073-080-081-089-090-097-098-111600-
   Southwest Minnesota

CITY           SKY/WX    TMP DP  RH WIND       PRES   REMARKS
MONTEVIDEO     MOSUNNY   81  72  74 SW7       29.89F
GRANITE FALLS  PTSUNNY   77  68  74 S7        29.91S
CANBY          MOSUNNY   79  68  68 W6        29.89F
MARSHALL       MOSUNNY   77  66  69 SW14      29.88R
REDWOOD FALLS  MOSUNNY   76  68  76 S14       29.91R
OLIVIA         CLOUDY    73  68  83 S12       29.91S
PIPESTONE      MOSUNNY   75  70  83 SW8       29.91S
WINDOM         PTSUNNY   73  64  73 S15       29.93F
WORTHINGTON    PTSUNNY   73  66  78 S14       29.96R
JACKSON        PTSUNNY   72  63  73 S15       29.95F
TRACY          MOSUNNY   75  68  79 S16       29.89F
SLAYTON        SUNNY     73  67  82 CALM      29.92F
$$
MNZ065>067-074>077-082>085-091>093-111600-
   South Central Minnesota

CITY           SKY/WX    TMP DP  RH WIND       PRES   REMARKS
MANKATO        PTSUNNY   72  63  73 S14G21    29.98F
NEW ULM        SUNNY     72  68  88 S21G26    29.92F
ST JAMES       MOSUNNY   73  64  73 SE14G20   29.94F
FAIRMONT       PTSUNNY   72  61  68 S20       29.95F
GLENCOE        HVY RAIN  67  64  87 E17G23    29.97S
FARIBAULT      LGT RAIN  66  61  82 S9G20     30.02R
OWATONNA       CLOUDY    64  61  88 S16G23    30.02F
WASECA         CLOUDY    66  59  77 SE14G20   30.02F
ALBERT LEA     CLOUDY    68  61  77 SE13      30.04F
$$
MNZ078>079-086>088-094>096-111600-
   Southeast Minnesota

CITY           SKY/WX    TMP DP  RH WIND       PRES   REMARKS
ROCHESTER      LGT RAIN  63  59  87 S12       30.11R
RED WING       RAIN      66  61  82 SE7       30.07R
STANTON        HVY RAIN  65  61  86 S6G16     30.05R
DODGE CENTER   LGT RAIN  64  61  88 S15       30.06F
WINONA         LGT RAIN  68  61  77 SW3       30.10R
AUSTIN         LGT RAIN  64  61  88 S9        30.06F
PRESTON        LGT RAIN  63  59  86 S13       30.11R
$$
ABBREVIATIONS USED IN REMARKS
   TC - TEMPERATURES IN CELSIUS
  WCI - WIND CHILL INDEX
   HX - HEAT INDEX
  VSB - VISIBILITY
$$



USA.gov is the U.S. government's official web portal to all federal, state and local government web resources and services.